Location: American Canyon
(38.1966°N, 122.1514°W)
Time: 13:38:19
(UTC+00:00)

Cosmos 614 Rocket - Pass Details

Date: 29 October 2020
Orbit: 734 x 763 km, 74.1° (Epoch: 01 December)

Event Time Altitude Azimuth Distance (km) Brightness Sun altitude
Rises 13:11:03 0° 203° (SSW) 3,189 7.0 -16.5°
Reaches altitude 10° 13:13:25 10° 205° (SSW) 2,264 6.2 -16.0°
Maximum altitude 13:18:32 70° 289° (WNW) 796 3.9 -15.0°
Drops below altitude 10° 13:23:38 10° 13° (NNE) 2,259 6.5 -14.0°
Sets 13:26:00 0° 16° (NNE) 3,182 7.3 -13.5°
